TimeMDT,TemperatureF,Dew PointF,Humidity,Sea Level PressureIn,VisibilityMPH,Wind Direction,Wind SpeedMPH,Gust SpeedMPH,PrecipitationIn,Events,Conditions,WindDirDegrees,DateUTC
12:15 AM,38.8,26.6,61,30.05,10.0,SSE,3.5,-,N/A,,Clear,160,2013-04-22 06:15:00
12:35 AM,39.6,26.2,59,30.05,10.0,South,6.9,-,N/A,,Clear,170,2013-04-22 06:35:00
12:55 AM,39.0,26.2,60,30.04,10.0,SE,5.8,-,N/A,,Clear,130,2013-04-22 06:55:00
1:15 AM,38.5,26.2,61,30.03,10.0,SE,3.5,-,N/A,,Clear,140,2013-04-22 07:15:00
1:35 AM,38.5,26.2,61,30.02,10.0,South,4.6,-,N/A,,Clear,170,2013-04-22 07:35:00
1:55 AM,38.7,26.2,61,30.02,10.0,ESE,3.5,-,N/A,,Clear,120,2013-04-22 07:55:00
2:15 AM,37.0,26.2,65,30.00,10.0,SSW,6.9,-,N/A,,Clear,200,2013-04-22 08:15:00
2:35 AM,36.1,25.5,65,30.00,10.0,Calm,Calm,-,N/A,,Clear,0,2013-04-22 08:35:00
2:55 AM,37.2,26.1,64,30.00,10.0,Calm,Calm,-,N/A,,Clear,0,2013-04-22 08:55:00
3:15 AM,36.3,25.9,66,29.99,10.0,Calm,Calm,-,N/A,,Clear,0,2013-04-22 09:15:00
3:35 AM,32.9,24.8,72,29.98,10.0,Calm,Calm,-,N/A,,Clear,0,2013-04-22 09:35:00
3:55 AM,34.0,26.1,73,29.97,10.0,WSW,4.6,-,N/A,,Clear,250,2013-04-22 09:55:00
4:15 AM,31.6,25.2,77,29.97,10.0,NW,5.8,-,N/A,,Clear,310,2013-04-22 10:15:00
4:35 AM,31.6,25.3,78,29.94,10.0,WNW,9.2,-,N/A,,Clear,290,2013-04-22 10:35:00
4:55 AM,31.6,25.7,79,29.94,10.0,West,9.2,-,N/A,,Clear,280,2013-04-22 10:55:00
5:15 AM,32.0,26.2,79,29.95,10.0,WNW,11.5,-,N/A,,Clear,290,2013-04-22 11:15:00
5:35 AM,34.7,27.5,75,29.94,10.0,West,11.5,-,N/A,,Clear,260,2013-04-22 11:35:00
5:55 AM,36.3,27.7,71,29.95,10.0,West,9.2,-,N/A,,Clear,280,2013-04-22 11:55:00
6:15 AM,35.6,27.1,71,29.96,10.0,WNW,11.5,-,N/A,,Clear,300,2013-04-22 12:15:00
6:35 AM,38.7,26.4,61,29.97,10.0,NW,10.4,-,N/A,,Clear,320,2013-04-22 12:35:00
6:55 AM,40.5,25.9,56,29.98,10.0,WNW,10.4,-,N/A,,Clear,300,2013-04-22 12:55:00
7:15 AM,42.4,25.3,51,29.98,10.0,NW,11.5,16.1,N/A,,Clear,320,2013-04-22 13:15:00
7:35 AM,45.0,24.1,44,29.98,10.0,NNW,11.5,18.4,N/A,,Clear,330,2013-04-22 13:35:00
7:55 AM,45.9,24.6,43,29.98,10.0,NNW,12.7,16.1,N/A,,Clear,330,2013-04-22 13:55:00
8:15 AM,47.5,25.2,42,29.98,10.0,North,12.7,18.4,N/A,,Clear,350,2013-04-22 14:15:00
8:35 AM,49.3,25.0,39,29.98,10.0,NNW,10.4,16.1,N/A,,Clear,340,2013-04-22 14:35:00
8:55 AM,51.3,24.1,35,29.98,7.0,North,11.5,16.1,N/A,,Clear,360,2013-04-22 14:55:00
9:15 AM,52.2,24.8,35,29.98,7.0,North,11.5,-,N/A,,Scattered Clouds,360,2013-04-22 15:15:00
9:35 AM,52.7,24.4,33,29.98,10.0,North,10.4,-,N/A,,Scattered Clouds,360,2013-04-22 15:35:00
9:55 AM,53.6,23.9,32,29.98,10.0,SW,3.5,-,N/A,,Scattered Clouds,220,2013-04-22 15:55:00
10:15 AM,54.7,23.2,29,29.96,7.0,North,9.2,-,N/A,,Scattered Clouds,350,2013-04-22 16:15:00
10:35 AM,57.6,22.6,26,29.96,7.0,NW,9.2,21.9,N/A,,Scattered Clouds,320,2013-04-22 16:35:00
10:55 AM,55.4,22.1,27,29.97,7.0,WNW,12.7,26.5,N/A,,Scattered Clouds,300,2013-04-22 16:55:00
11:15 AM,48.7,27.3,43,29.99,7.0,WNW,16.1,38.0,N/A,,Overcast,290,2013-04-22 17:15:00
11:35 AM,55.6,25.2,31,29.97,7.0,SW,5.8,-,N/A,,Scattered Clouds,230,2013-04-22 17:35:00
11:55 AM,57.7,23.7,27,29.96,10.0,SSW,9.2,-,N/A,,Clear,200,2013-04-22 17:55:00
12:15 PM,55.6,23.4,29,30.00,10.0,NNW,11.5,21.9,N/A,,Mostly Cloudy,340,2013-04-22 18:15:00
12:35 PM,39.7,32.0,74,30.03,3.0,North,19.6,35.7,N/A,,Haze,360,2013-04-22 18:35:00
12:55 PM,35.4,32.4,89,30.02,3.0,North,20.7,29.9,N/A,Rain,Light Rain,10,2013-04-22 18:55:00
1:15 PM,39.2,33.8,81,30.01,10.0,North,21.9,32.2,N/A,,Unknown,10,2013-04-22 19:15:00
1:35 PM,39.6,31.3,72,30.01,10.0,North,28.8,34.5,N/A,,Overcast,360,2013-04-22 19:35:00
1:55 PM,34.9,28.2,77,30.02,7.0,North,25.3,31.1,N/A,,Overcast,10,2013-04-22 19:55:00
2:15 PM,32.0,28.9,88,30.03,2.0,North,21.9,32.2,N/A,Snow,Light Snow,10,2013-04-22 20:15:00
2:35 PM,32.0,29.7,91,30.00,0.2,North,27.6,35.7,N/A,Snow,Heavy Snow,360,2013-04-22 20:35:00
2:55 PM,32.5,29.5,88,29.99,5.0,North,29.9,38.0,N/A,Snow,Light Snow,10,2013-04-22 20:55:00
3:15 PM,31.6,28.0,87,29.99,7.0,North,24.2,42.6,N/A,,Overcast,360,2013-04-22 21:15:00
3:35 PM,31.8,26.8,82,29.98,5.0,North,29.9,41.4,N/A,,Overcast,10,2013-04-22 21:35:00
3:55 PM,30.6,25.3,81,30.01,10.0,North,29.9,38.0,N/A,,Overcast,10,2013-04-22 21:55:00
4:15 PM,30.7,23.7,75,30.02,10.0,North,27.6,40.3,N/A,,Overcast,360,2013-04-22 22:15:00
4:35 PM,28.2,22.3,78,30.04,10.0,North,24.2,35.7,N/A,,Overcast,360,2013-04-22 22:35:00
4:55 PM,27.0,22.1,82,30.05,10.0,North,26.5,33.4,N/A,,Overcast,360,2013-04-22 22:55:00
5:15 PM,26.6,21.7,82,30.06,5.0,North,23.0,33.4,N/A,Snow,Light Snow,360,2013-04-22 23:15:00
5:35 PM,26.1,21.7,84,30.06,10.0,North,21.9,32.2,N/A,Snow,Light Snow,360,2013-04-22 23:35:00
5:55 PM,25.2,21.6,86,30.04,10.0,North,27.6,36.8,N/A,,Overcast,360,2013-04-22 23:55:00
6:15 PM,25.2,21.0,84,30.04,10.0,North,27.6,39.1,N/A,,Overcast,360,2013-04-23 00:15:00
6:35 PM,24.6,19.9,82,30.07,10.0,North,26.5,36.8,N/A,,Overcast,360,2013-04-23 00:35:00
6:55 PM,23.9,20.1,85,30.09,10.0,North,25.3,32.2,N/A,,Overcast,10,2013-04-23 00:55:00
7:15 PM,23.5,19.2,84,30.10,10.0,North,21.9,34.5,N/A,,Overcast,360,2013-04-23 01:15:00
7:35 PM,23.4,18.9,83,30.09,10.0,North,21.9,32.2,N/A,,Overcast,10,2013-04-23 01:35:00
7:55 PM,22.1,19.0,88,30.12,7.0,North,27.6,32.2,N/A,Snow,Light Snow,10,2013-04-23 01:55:00
8:15 PM,21.9,19.0,89,30.13,7.0,North,23.0,32.2,N/A,,Overcast,10,2013-04-23 02:15:00
8:35 PM,21.4,19.0,91,30.14,7.0,North,21.9,28.8,N/A,,Overcast,10,2013-04-23 02:35:00
8:55 PM,21.6,17.6,85,30.14,10.0,North,21.9,31.1,N/A,,Overcast,360,2013-04-23 02:55:00
9:15 PM,21.2,17.2,85,30.15,10.0,North,23.0,31.1,N/A,,Overcast,10,2013-04-23 03:15:00
9:35 PM,21.6,18.1,87,30.16,10.0,North,19.6,28.8,N/A,,Overcast,10,2013-04-23 03:35:00
9:55 PM,21.2,16.5,82,30.17,10.0,North,23.0,28.8,N/A,,Overcast,10,2013-04-23 03:55:00
10:15 PM,20.7,16.3,83,30.18,5.0,North,18.4,28.8,N/A,Snow,Light Snow,10,2013-04-23 04:15:00
10:35 PM,20.7,16.5,84,30.17,10.0,NNE,20.7,26.5,N/A,Snow,Light Snow,20,2013-04-23 04:35:00
10:55 PM,20.3,16.5,85,30.17,7.0,North,17.3,24.2,N/A,Snow,Light Snow,10,2013-04-23 04:55:00
11:15 PM,19.9,16.2,85,30.18,4.0,North,13.8,21.9,N/A,Snow,Light Snow,10,2013-04-23 05:15:00
11:35 PM,19.6,15.3,83,30.16,10.0,North,13.8,23.0,N/A,,Overcast,10,2013-04-23 05:35:00
11:55 PM,19.8,15.3,83,30.16,10.0,NNE,15.0,20.7,N/A,,Overcast,20,2013-04-23 05:55:00